CW1459 Weather Reports


time (UTC)temp
F
wind
direction
speed
knots
gust
knots
rain 1hr
in
rain 24hr
in
rain mn
in
humidity
%
barometer
mb
20260504043352 41 138 0.0 0.0 0.00 0.00 0.00 75 1013.7
20260504042336 41 138 0.0 0.0 0.00 0.00 0.00 73 1013.7
20260504041338 42 138 0.0 0.9 0.00 0.00 0.00 73 1013.6
20260504040317 42 138 0.0 0.0 0.00 0.00 0.00 74 1013.6
20260504035317 43 138 0.0 0.9 0.00 0.00 0.00 73 1013.4
20260504034316 43 138 0.0 1.7 0.00 0.00 0.00 74 1013.4
20260504033347 42 138 0.0 0.9 0.00 0.00 0.00 73 1013.4
20260504032321 43 138 0.0 0.9 0.00 0.00 0.00 73 1013.4
20260504031321 43 138 0.9 2.6 0.00 0.00 0.00 72 1013.4
20260504030322 44 12 0.9 3.5 0.00 0.00 0.00 71 1013.3
20260504025313 44 258 0.9 1.7 0.00 0.00 0.00 70 1013.4
20260504024316 44 181 0.9 2.6 0.00 0.00 0.00 69 1013.3
20260504023314 45 135 0.0 0.9 0.00 0.00 0.00 68 1013.2
20260504022337 45 135 0.0 1.7 0.00 0.00 0.00 68 1013.2
20260504021315 45 135 0.0 0.0 0.00 0.00 0.00 66 1013.1
20260504020314 45 135 0.0 0.9 0.00 0.00 0.00 65 1013.1
20260504015313 46 135 0.0 0.9 0.00 0.00 0.00 64 1013.0
20260504014319 46 135 0.0 0.0 0.00 0.00 0.00 63 1013.0
20260504013317 47 135 0.0 1.7 0.00 0.00 0.00 60 1012.9
20260504012322 48 135 0.0 0.9 0.00 0.00 0.00 57 1012.7
20260504011335 49 135 0.0 1.7 0.00 0.00 0.00 55 1012.7
20260504010333 50 135 0.9 1.7 0.00 0.00 0.00 55 1012.7
20260504005316 50 135 1.7 1.7 0.00 0.00 0.00 53 1012.7
20260504004313 51 135 0.0 2.6 0.00 0.00 0.00 52 1012.6
20260504003339 51 146 1.7 2.6 0.00 0.00 0.00 51 1012.6
20260504002358 53 130 1.7 2.6 0.00 0.00 0.00 48 1012.5
20260504001312 54 150 1.7 1.7 0.00 0.00 0.00 46 1012.4
20260504000337 56 161 1.7 3.5 0.00 0.00 0.00 42 1012.4
20260503235312 57 257 0.9 3.5 0.00 0.00 0.00 35 1012.3
20260503234336 58 303 2.6 4.3 0.00 0.00 0.00 35 1012.2
20260503233314 59 294 1.7 7.0 0.00 0.00 0.00 34 1012.1
20260503232312 60 290 2.6 8.7 0.00 0.00 0.00 33 1012.1
20260503231314 61 282 3.5 8.7 0.00 0.00 0.00 33 1012.1
20260503230337 61 286 5.2 7.8 0.00 0.00 0.00 33 1011.9
20260503225337 61 279 3.5 7.8 0.00 0.00 0.00 33 1011.8
20260503224329 62 290 3.5 8.7 0.00 0.00 0.00 35 1011.9
20260503223328 61 302 6.1 10.4 0.00 0.00 0.00 33 1011.9
20260503222334 62 285 6.1 9.6 0.00 0.00 0.00 31 1012.0
20260503221336 62 317 3.5 13.0 0.00 0.00 0.00 35 1012.0
20260503220329 62 340 7.8 10.4 0.00 0.00 0.00 32 1012.2
20260503215331 63 298 3.5 12.2 0.00 0.00 0.00 33 1012.2
20260503214336 63 301 3.5 7.8 0.00 0.00 0.00 32 1012.1
20260503213328 62 265 7.8 13.9 0.00 0.00 0.00 32 1012.2
20260503212329 62 316 7.0 12.2 0.00 0.00 0.00 31 1012.3
20260503211320 62 313 7.8 13.0 0.00 0.00 0.00 33 1012.2
20260503210352 62 309 5.2 11.3 0.00 0.00 0.00 34 1012.2
20260503205337 62 229 3.5 12.2 0.00 0.00 0.00 33 1012.2
20260503204314 63 336 8.7 12.2 0.00 0.00 0.00 32 1012.2
20260503203329 62 341 5.2 12.2 0.00 0.00 0.00 37 1012.2
20260503202314 63 321 9.6 16.5 0.00 0.00 0.00 36 1012.4
20260503201328 62 323 8.7 14.8 0.00 0.00 0.00 34 1012.3
20260503200348 62 313 6.1 13.0 0.00 0.00 0.00 32 1012.5
20260503195332 61 337 8.7 13.0 0.00 0.00 0.00 32 1012.8
20260503194311 62 360 5.2 13.9 0.00 0.00 0.00 33 1012.8
20260503193352 61 304 6.1 13.9 0.00 0.00 0.00 31 1013.0
20260503192315 59 239 7.0 11.3 0.00 0.00 0.00 35 1013.1
20260503191311 61 321 7.0 15.6 0.00 0.00 0.00 32 1013.3
20260503190311 62 294 9.6 16.5 0.00 0.00 0.00 33 1013.4
20260503185334 62 308 5.2 11.3 0.00 0.00 0.00 36 1013.2
20260503184328 61 286 5.2 10.4 0.00 0.00 0.00 34 1013.4
20260503183330 60 300 6.1 15.6 0.00 0.00 0.00 32 1013.7
20260503182316 60 320 5.2 11.3 0.00 0.00 0.00 37 1013.6
20260503181352 59 275 6.1 12.2 0.00 0.00 0.00 34 1013.8
20260503180315 59 285 7.8 13.0 0.00 0.00 0.00 34 1013.8
20260503175313 59 284 7.0 12.2 0.00 0.00 0.00 34 1013.9
20260503174334 59 317 6.1 16.5 0.00 0.00 0.00 39 1014.1
20260503173320 59 332 6.1 15.6 0.00 0.00 0.00 41 1014.2
20260503172326 57 329 9.6 15.6 0.00 0.00 0.00 40 1014.3
20260503171359 57 293 2.6 12.2 0.00 0.00 0.00 41 1014.3
20260503170312 58 316 5.2 10.4 0.00 0.00 0.00 41 1014.2
20260503150332 51 328 6.1 13.9 0.00 0.00 0.00 51 1015.6
20260503131313 47 19 5.2 13.0 0.00 0.00 0.00 60 1015.6
20260503130313 46 311 3.5 7.8 0.00 0.00 0.00 62 1015.9
20260503110358 36 292 0.0 1.7 0.00 0.00 0.00 79 1015.1
20260503090342 37 304 0.0 4.3 0.00 0.00 0.00 76 1013.7
20260503081321 39 290 2.6 5.2 0.00 0.00 0.00 76 1013.5
20260503080341 39 302 0.9 3.5 0.00 0.00 0.00 76 1013.4
20260503072315 40 317 0.0 1.7 0.00 0.00 0.00 75 1012.9
20260503071334 41 318 0.0 2.6 0.00 0.00 0.00 73 1012.9
20260503070400 41 347 1.7 3.5 0.00 0.00 0.00 72 1012.9
20260503054341 43 329 3.5 7.0 0.00 0.00 0.00 70 1012.7
20260503053318 43 333 3.5 7.8 0.00 0.00 0.00 70 1012.7
20260503052337 42 320 5.2 10.4 0.00 0.00 0.00 71 1012.7
20260503051340 42 317 3.5 7.0 0.00 0.00 0.00 71 1012.7
20260503050320 42 328 5.2 7.8 0.00 0.00 0.00 70 1012.7
20260503045325 42 351 4.3 7.8 0.00 0.00 0.00 70 1012.7
20260503044317 42 327 3.5 5.2 0.00 0.00 0.00 69 1012.9